DW6160 Weather Reports


Display with metric or nautical units.
time (UTC)temp
F
wind
direction
speed
MPH
gust
MPH
rain 1hr
in
rain 24hr
in
rain mn
in
humidity
%
barometer
mb
20180218102036 39 183 0.0 0.0 0.00 0.00 0.00 55 1016.2
20180218101524 39 192 0.0 0.0 0.00 0.00 0.00 55 1016.2
20180218101032 38 173 0.0 0.0 0.00 0.00 0.00 55 1016.4
20180218100522 38 196 0.0 0.0 0.00 0.00 0.00 54 1016.4
20180218100040 38 167 0.0 0.0 0.00 0.00 0.00 54 1016.5
20180218095521 38 167 0.0 0.0 0.00 0.00 0.00 53 1016.6
20180218095030 38 175 0.0 0.0 0.00 0.00 0.00 52 1016.6
20180218094516 38 170 0.0 0.0 0.00 0.00 0.00 52 1016.7
20180218094023 38 181 0.0 0.0 0.00 0.00 0.00 50 1016.9
20180218093531 37 163 0.0 0.0 0.00 0.00 0.00 49 1017.0
20180218093036 38 174 0.0 0.0 0.00 0.00 0.00 48 1017.0
20180218092524 38 182 0.0 0.0 0.00 0.00 0.00 47 1017.1
20180218092032 37 180 0.0 0.0 0.00 0.00 0.00 46 1017.1
20180218091531 38 160 0.0 0.0 0.00 0.00 0.00 45 1017.3
20180218091033 38 159 0.0 0.0 0.00 0.00 0.00 43 1017.4
20180218090522 38 165 0.0 0.0 0.00 0.00 0.00 43 1017.5
20180218090040 38 161 0.0 0.0 0.00 0.00 0.00 42 1017.4
20180218085533 38 167 0.0 0.0 0.00 0.00 0.00 42 1017.5
20180218085021 38 155 0.0 0.0 0.00 0.00 0.00 42 1017.6
20180218084527 38 173 0.0 0.0 0.00 0.00 0.00 43 1017.7
20180218084034 38 171 0.0 0.0 0.00 0.00 0.00 43 1017.8
20180218083521 37 163 0.0 0.0 0.00 0.00 0.00 43 1017.8
20180218083027 37 152 0.0 0.0 0.00 0.00 0.00 43 1018.0
20180218082531 37 172 0.0 0.0 0.00 0.00 0.00 42 1018.1
20180218082024 37 168 0.0 0.0 0.00 0.00 0.00 42 1018.2
20180218081531 37 167 0.0 0.0 0.00 0.00 0.00 41 1018.1
20180218081031 38 170 0.0 0.0 0.00 0.00 0.00 40 1018.1
20180218080520 39 153 0.0 0.0 0.00 0.00 0.00 39 1018.1
20180218080038 39 146 0.0 0.0 0.00 0.00 0.00 39 1018.2
20180218075530 40 148 0.0 0.0 0.00 0.00 0.00 39 1018.2
20180218075019 40 154 0.0 0.0 0.00 0.00 0.00 39 1018.3
20180218074525 39 154 0.0 0.0 0.00 0.00 0.00 39 1018.3
20180218074031 39 150 0.0 0.0 0.00 0.00 0.00 40 1018.5
20180218073523 38 143 0.0 0.0 0.00 0.00 0.00 41 1018.6
20180218073034 38 160 0.0 0.0 0.00 0.00 0.00 41 1018.8
20180218072525 37 162 0.0 0.0 0.00 0.00 0.00 41 1018.7
20180218072033 37 141 0.0 0.0 0.00 0.00 0.00 43 1018.8
20180218071519 36 155 0.0 0.0 0.00 0.00 0.00 43 1019.0
20180218071029 36 155 0.0 0.0 0.00 0.00 0.00 43 1019.0
20180218070538 35 144 0.0 0.0 0.00 0.00 0.00 44 1019.1
20180218070035 35 136 0.0 0.0 0.00 0.00 0.00 43 1019.1
20180218065532 35 136 0.0 0.0 0.00 0.00 0.00 43 1019.0
20180218065036 35 134 0.0 0.0 0.00 0.00 0.00 43 1019.1
20180218064528 35 128 0.0 0.0 0.00 0.00 0.00 44 1019.2
20180218064018 34 128 0.0 0.0 0.00 0.00 0.00 45 1019.2
20180218063529 33 123 0.0 0.0 0.00 0.00 0.00 46 1019.3
20180218063018 33 119 0.0 0.0 0.00 0.00 0.00 46 1019.2
20180218062526 33 119 0.0 0.0 0.00 0.00 0.00 46 1019.3
20180218062031 32 119 0.0 0.0 0.00 0.00 0.00 46 1019.3
20180218061535 33 109 0.0 0.0 0.00 0.00 0.00 45 1019.4
20180218061020 33 109 0.0 0.0 0.00 0.00 0.00 44 1019.5
20180218060530 34 133 0.0 0.0 0.00 0.00 0.00 44 1019.5
20180218060045 35 133 0.0 0.0 0.00 0.00 0.00 43 1019.7
20180218055524 35 133 0.0 0.0 0.00 0.00 0.00 43 1019.7
20180218055031 35 134 0.0 0.0 0.00 0.00 0.00 45 1019.8
20180218054515 34 153 0.0 0.0 0.00 0.00 0.00 45 1019.8
20180218054027 33 100 0.0 0.0 0.00 0.00 0.00 45 1019.9
20180218053536 33 100 0.0 0.0 0.00 0.00 0.00 46 1019.9
20180218053022 32 96 0.0 0.0 0.00 0.00 0.00 45 1019.9
20180218052529 32 96 0.0 0.0 0.00 0.00 0.00 44 1020.1
20180218052018 33 96 0.0 0.0 0.00 0.00 0.00 44 1020.1
20180218051529 34 96 0.0 0.0 0.00 0.00 0.00 43 1020.0
20180218051020 34 96 0.0 0.0 0.00 0.00 0.00 43 1020.1
20180218050529 34 96 0.0 0.0 0.00 0.00 0.00 43 1020.1
20180218050047 34 96 0.0 0.0 0.00 0.00 0.00 43 1020.1
20180218045525 34 96 0.0 0.0 0.00 0.00 0.00 43 1020.2
20180218045030 35 96 0.0 0.0 0.00 0.00 0.00 43 1020.2
20180218044537 34 96 0.0 0.0 0.00 0.00 0.00 44 1020.3
20180218044023 33 96 0.0 0.0 0.00 0.00 0.00 45 1020.3
20180218043532 32 96 0.0 0.0 0.00 0.00 0.00 46 1020.3
20180218043035 32 96 0.0 0.0 0.00 0.00 0.00 46 1020.4
20180218042520 32 96 0.0 0.0 0.00 0.00 0.00 45 1020.4
20180218042029 33 96 0.0 0.0 0.00 0.00 0.00 46 1020.4
20180218041534 33 96 0.0 0.0 0.00 0.00 0.00 46 1020.6
20180218041018 33 96 0.0 0.0 0.00 0.00 0.00 45 1020.5
20180218040528 32 96 0.0 0.0 0.00 0.00 0.00 46 1020.5
20180218040044 33 96 0.0 0.0 0.00 0.00 0.00 43 1020.5
20180218035537 34 96 0.0 0.0 0.00 0.00 0.00 43 1020.5
20180218035026 34 96 0.0 0.0 0.00 0.00 0.00 44 1020.6
20180218034535 34 96 0.0 0.0 0.00 0.00 0.00 44 1020.6
20180218034018 33 96 0.0 0.0 0.00 0.00 0.00 45 1020.7
20180218033531 33 96 0.0 0.0 0.00 0.00 0.00 44 1020.6
20180218033036 33 96 0.0 0.0 0.00 0.00 0.00 45 1020.7
20180218032526 32 96 0.0 0.0 0.00 0.00 0.00 45 1020.7
20180218032041 33 96 0.0 0.0 0.00 0.00 0.00 44 1020.7
20180218031524 33 96 0.0 0.0 0.00 0.00 0.00 43 1020.8
20180218031029 34 96 0.0 0.0 0.00 0.00 0.00 42 1020.7
20180218030537 34 96 0.0 0.0 0.00 0.00 0.00 43 1020.7
20180218030035 34 96 0.0 0.0 0.00 0.00 0.00 43 1020.8
20180218025526 34 96 0.0 0.0 0.00 0.00 0.00 42 1020.8
20180218025020 35 96 0.0 0.0 0.00 0.00 0.00 42 1020.7
20180218024526 35 96 0.0 0.0 0.00 0.00 0.00 41 1020.8
20180218024034 35 96 0.0 0.0 0.00 0.00 0.00 41 1020.7
20180218023523 35 96 0.0 0.0 0.00 0.00 0.00 41 1020.5
20180218023031 36 96 0.0 0.0 0.00 0.00 0.00 41 1020.4
20180218022519 35 96 0.0 0.0 0.00 0.00 0.00 43 1020.5
20180218022027 34 96 0.0 0.0 0.00 0.00 0.00 44 1020.4
20180218021515 34 30 0.0 0.0 0.00 0.00 0.00 42 1020.3
20180218021024 34 30 0.0 0.0 0.00 0.00 0.00 41 1020.4
20180218020516 35 30 0.0 0.0 0.00 0.00 0.00 39 1020.4
20180218020037 36 30 0.0 0.0 0.00 0.00 0.00 39 1020.4
20180218015528 36 30 0.0 0.0 0.00 0.00 0.00 39 1020.4
20180218015036 37 30 0.0 0.0 0.00 0.00 0.00 39 1020.3
20180218014520 37 30 0.0 0.0 0.00 0.00 0.00 39 1020.4
20180218014027 37 30 0.0 0.0 0.00 0.00 0.00 38 1020.4
20180218013536 37 30 0.0 0.0 0.00 0.00 0.00 38 1020.4
20180218013023 37 30 0.0 0.0 0.00 0.00 0.00 38 1020.4
20180218012530 37 30 0.0 0.0 0.00 0.00 0.00 37 1020.4
20180218012037 38 30 0.0 0.0 0.00 0.00 0.00 37 1020.4
20180218011528 38 30 0.0 0.0 0.00 0.00 0.00 35 1020.4
20180218011034 39 30 0.0 0.0 0.00 0.00 0.00 35 1020.3
20180218010523 40 30 0.0 0.0 0.00 0.00 0.00 34 1020.5
20180218010041 40 30 0.0 0.0 0.00 0.00 0.00 33 1020.4
20180218005533 41 30 0.0 0.0 0.00 0.00 0.00 32 1020.4
20180218005021 42 30 0.0 0.0 0.00 0.00 0.00 31 1020.3
20180218004527 42 30 0.0 0.0 0.00 0.00 0.00 31 1020.4
20180218004030 43 30 0.0 0.0 0.00 0.00 0.00 31 1020.3
20180218003518 44 30 0.0 0.0 0.00 0.00 0.00 30 1020.3
20180218003025 44 30 0.0 0.0 0.00 0.00 0.00 29 1020.3
20180218002534 46 30 0.0 0.0 0.00 0.00 0.00 26 1020.2
20180218002025 48 30 0.0 0.0 0.00 0.00 0.00 25 1020.1
20180218001532 50 30 0.0 0.0 0.00 0.00 0.00 25 1020.0
20180218001022 51 30 0.0 0.0 0.00 0.00 0.00 24 1019.9
20180218000531 52 30 0.0 0.0 0.00 0.00 0.00 24 1019.8
20180218000047 53 30 0.0 0.0 0.00 0.00 0.00 24 1019.7
20180217235520 54 30 0.0 0.0 0.00 0.00 0.00 24 1019.5
20180217235029 54 5 0.0 0.0 0.00 0.00 0.00 23 1019.4
20180217234537 55 360 0.0 0.0 0.00 0.00 0.00 23 1019.4
20180217234028 55 13 0.0 0.0 0.00 0.00 0.00 23 1019.4
20180217233520 56 24 0.0 0.0 0.00 0.00 0.00 23 1019.3
20180217233025 56 21 0.0 0.0 0.00 0.00 0.00 22 1019.2
20180217232531 56 360 0.0 0.0 0.00 0.00 0.00 22 1019.4
20180217232023 57 5 0.0 0.0 0.00 0.00 0.00 21 1019.5
20180217231534 57 360 0.0 0.0 0.00 0.00 0.00 21 1019.4
20180217231021 57 346 0.0 0.0 0.00 0.00 0.00 22 1019.5
20180217230529 57 5 0.0 0.0 0.00 0.00 0.00 21 1019.4
20180217230050 57 355 0.0 0.0 0.00 0.00 0.00 22 1019.4
20180217225527 58 15 0.0 0.0 0.00 0.00 0.00 21 1019.5
20180217225019 58 24 0.0 0.0 0.00 0.00 0.00 21 1019.5
20180217224525 58 5 0.0 0.0 0.00 0.00 0.00 21 1019.5
20180217224036 58 29 0.0 0.0 0.00 0.00 0.00 21 1019.5
20180217223523 58 31 0.0 0.0 0.00 0.00 0.00 20 1019.5
20180217223028 59 33 0.0 0.0 0.00 0.00 0.00 20 1019.3
20180217222535 59 360 0.0 0.0 0.00 0.00 0.00 21 1019.4
20180217222023 59 355 0.0 0.0 0.00 0.00 0.00 21 1019.4
20180217221530 59 41 0.0 0.0 0.00 0.00 0.00 20 1019.4
20180217221021 59 5 0.0 0.0 0.00 0.00 0.00 21 1019.4
20180217220532 59 5 0.0 0.0 0.00 0.00 0.00 20 1019.4
20180217220050 59 34 0.0 0.0 0.00 0.00 0.00 21 1019.4
20180217215522 59 355 0.0 0.0 0.00 0.00 0.00 21 1019.5
20180217215034 59 5 0.0 0.0 0.00 0.00 0.00 21 1019.5
20180217214519 59 24 0.0 0.0 0.00 0.00 0.00 21 1019.5
20180217214026 59 324 0.0 0.0 0.00 0.00 0.00 20 1019.4
20180217213535 59 323 0.0 0.0 0.00 0.00 0.00 21 1019.5
20180217213020 59 24 0.0 0.0 0.00 0.00 0.00 20 1019.3
20180217212528 59 292 0.0 0.0 0.00 0.00 0.00 21 1019.3
20180217212024 59 13 0.0 0.0 0.00 0.00 0.00 20 1019.3
20180217211532 59 343 0.0 0.0 0.00 0.00 0.00 20 1019.3
20180217211018 59 5 0.0 0.0 0.00 0.00 0.00 20 1019.4
20180217210525 59 355 0.0 0.0 0.00 0.00 0.00 21 1019.1
20180217210042 59 36 0.0 0.0 0.00 0.00 0.00 20 1019.2
20180217205533 59 32 0.0 0.0 0.00 0.00 0.00 21 1019.1
20180217205020 59 350 0.0 0.0 0.00 0.00 0.00 20 1019.0
20180217204533 59 306 0.0 0.0 0.00 0.00 0.00 20 1019.0
20180217204037 59 32 0.0 0.0 0.00 0.00 0.00 20 1019.0
20180217203527 58 23 0.0 0.0 0.00 0.00 0.00 20 1019.1
20180217203035 59 337 0.0 0.0 0.00 0.00 0.00 20 1019.0
20180217202522 59 22 0.0 0.0 0.00 0.00 0.00 22 1019.0
20180217202029 59 24 0.0 0.0 0.00 0.00 0.00 21 1019.1
20180217201535 59 340 0.0 0.0 0.00 0.00 0.00 22 1019.0
20180217201022 59 331 0.0 0.0 0.00 0.00 0.00 22 1019.1
20180217200521 59 30 0.0 0.0 0.00 0.00 0.00 23 1019.1
20180217200039 59 30 0.0 0.0 0.00 0.00 0.00 23 1019.1
20180217195534 59 300 0.0 0.0 0.00 0.00 0.00 23 1019.1
20180217195022 59 331 0.0 0.0 0.00 0.00 0.00 25 1019.0
20180217194533 58 350 0.0 0.0 0.00 0.00 0.00 25 1019.0
20180217194021 58 311 0.0 0.0 0.00 0.00 0.00 25 1019.1
20180217193529 58 26 0.0 0.0 0.00 0.00 0.00 25 1019.2
20180217193035 58 320 0.0 0.0 0.00 0.00 0.00 25 1019.1
20180217192521 58 273 0.0 0.0 0.00 0.00 0.00 27 1019.2
20180217192030 58 40 0.0 0.0 0.00 0.00 0.00 27 1019.2
20180217191537 58 306 0.0 0.0 0.00 0.00 0.00 28 1019.2
20180217191023 58 309 0.0 0.0 0.00 0.00 0.00 28 1019.1
20180217190533 58 277 0.0 0.0 0.00 0.00 0.00 29 1019.2
20180217190036 57 355 0.0 0.0 0.00 0.00 0.00 30 1019.1
20180217185529 57 335 0.0 0.0 0.00 0.00 0.00 30 1019.1
20180217185018 57 355 0.0 0.0 0.00 0.00 0.00 31 1019.1
20180217184526 57 301 0.0 0.0 0.00 0.00 0.00 31 1019.1
20180217184034 57 17 0.0 0.0 0.00 0.00 0.00 32 1019.0
20180217183521 56 13 0.0 0.0 0.00 0.00 0.00 32 1019.0
20180217183028 56 300 0.0 0.0 0.00 0.00 0.00 33 1019.0
20180217182535 56 13 0.0 0.0 0.00 0.00 0.00 34 1019.0
20180217182024 55 317 0.0 0.0 0.00 0.00 0.00 35 1019.0
20180217181531 55 297 0.0 0.0 0.00 0.00 0.00 35 1018.8
20180217181023 55 31 0.0 0.0 0.00 0.00 0.00 34 1018.8
20180217180533 55 348 0.0 0.0 0.00 0.00 0.00 34 1018.8
20180217180033 55 302 0.0 0.0 0.00 0.00 0.00 35 1018.7
20180217175525 55 346 0.0 0.0 0.00 0.00 0.00 35 1018.7
20180217175033 54 307 0.0 0.0 0.00 0.00 0.00 35 1018.6
20180217174536 55 331 0.0 0.0 0.00 0.00 0.00 35 1018.5
20180217174017 55 341 0.0 0.0 0.00 0.00 0.00 35 1018.3
20180217173527 55 304 0.0 0.0 0.00 0.00 0.00 35 1018.2
20180217173036 55 5 0.0 0.0 0.00 0.00 0.00 35 1018.2
20180217172526 54 338 0.0 0.0 0.00 0.00 0.00 36 1018.1
20180217172019 54 17 0.0 0.0 0.00 0.00 0.00 36 1018.1
20180217171526 53 320 0.0 0.0 0.00 0.00 0.00 36 1017.9
20180217171034 53 315 0.0 0.0 0.00 0.00 0.00 37 1017.9
20180217170522 52 316 0.0 0.0 0.00 0.00 0.00 38 1017.7
20180217170041 52 345 0.0 0.0 0.00 0.00 0.00 38 1017.7
20180217165534 51 317 0.0 0.0 0.00 0.00 0.00 39 1017.5
20180217165024 51 313 0.0 0.0 0.00 0.00 0.00 40 1017.3
20180217164531 50 322 0.0 0.0 0.00 0.00 0.00 41 1017.2
20180217164020 49 332 0.0 0.0 0.00 0.00 0.00 43 1017.0
20180217163533 48 315 0.0 0.0 0.00 0.00 0.00 43 1016.9
20180217163021 48 325 0.0 0.0 0.00 0.00 0.00 44 1016.8
20180217162528 47 302 0.0 0.0 0.00 0.00 0.00 45 1016.8
20180217162036 47 333 0.0 0.0 0.00 0.00 0.00 46 1016.7
20180217161523 46 347 0.0 0.0 0.00 0.00 0.00 47 1016.8
20180217161031 46 326 0.0 0.0 0.00 0.00 0.00 49 1016.6
20180217160533 45 355 0.0 0.0 0.00 0.00 0.00 51 1016.6
20180217160032 44 330 0.0 0.0 0.00 0.00 0.00 52 1016.6
20180217155525 43 310 0.0 0.0 0.00 0.00 0.00 56 1016.6
20180217155030 42 343 0.0 0.0 0.00 0.00 0.00 57 1016.5
20180217154524 42 322 0.0 0.0 0.00 0.00 0.00 60 1016.3
20180217154031 41 315 0.0 0.0 0.00 0.00 0.00 61 1016.3
20180217153522 40 294 0.0 0.0 0.00 0.00 0.00 63 1016.2
20180217153029 40 324 0.0 0.0 0.00 0.00 0.00 66 1016.3
20180217152519 39 310 0.0 0.0 0.00 0.00 0.00 69 1016.3
20180217152028 39 290 0.0 0.0 0.00 0.00 0.00 70 1016.2
20180217151536 38 256 0.0 0.0 0.00 0.00 0.00 73 1016.1
20180217151025 38 239 0.0 0.0 0.00 0.00 0.00 75 1016.1
20180217150519 37 252 0.0 0.0 0.00 0.00 0.00 77 1016.2
20180217150041 37 244 0.0 0.0 0.00 0.00 0.00 78 1016.2
20180217145517 36 261 0.0 0.0 0.00 0.00 0.00 79 1016.3
20180217145027 36 241 0.0 0.0 0.00 0.00 0.00 80 1016.3
20180217144531 36 251 0.0 0.0 0.00 0.00 0.00 81 1016.2
20180217144018 35 274 0.0 0.0 0.00 0.00 0.00 82 1016.1
20180217143528 35 254 0.0 0.0 0.00 0.00 0.00 83 1016.1
20180217143019 35 247 0.0 0.0 0.00 0.00 0.00 84 1016.0
20180217142526 34 234 0.0 0.0 0.00 0.00 0.00 85 1016.0
20180217142022 34 248 0.0 0.0 0.00 0.00 0.00 86 1016.0
20180217141527 33 251 0.0 0.0 0.00 0.00 0.00 87 1016.0
20180217141033 32 254 0.0 0.0 0.00 0.00 0.00 87 1016.1
20180217140524 32 263 0.0 0.0 0.00 0.00 0.00 88 1016.0
20180217140040 31 258 0.0 0.0 0.00 0.00 0.00 88 1015.9
20180217135533 30 234 0.0 0.0 0.00 0.00 0.00 88 1015.3
20180217135021 29 226 0.0 0.0 0.00 0.00 0.00 88 1015.2
20180217134529 28 229 0.0 0.0 0.00 0.00 0.00 88 1015.1
20180217134019 27 229 0.0 0.0 0.00 0.00 0.00 87 1015.2
20180217133531 26 229 0.0 0.0 0.00 0.00 0.00 87 1015.2
20180217133021 26 229 0.0 0.0 0.00 0.00 0.00 86 1015.1
20180217132529 26 229 0.0 0.0 0.00 0.00 0.00 85 1015.1
20180217132018 26 229 0.0 0.0 0.00 0.00 0.00 85 1015.2
20180217131526 27 229 0.0 0.0 0.00 0.00 0.00 85 1015.1
20180217131033 27 229 0.0 0.0 0.00 0.00 0.00 85 1014.9
20180217130521 27 229 0.0 0.0 0.00 0.00 0.00 85 1014.9
20180217130038 27 229 0.0 0.0 0.00 0.00 0.00 84 1014.8
20180217125531 28 229 0.0 0.0 0.00 0.00 0.00 84 1014.8
20180217125024 28 229 0.0 0.0 0.00 0.00 0.00 84 1014.7
20180217124518 29 229 0.0 0.0 0.00 0.00 0.00 83 1014.5
20180217124025 29 228 0.0 0.0 0.00 0.00 0.00 83 1014.5
20180217123533 30 228 0.0 0.0 0.00 0.00 0.00 84 1014.3
20180217123020 30 228 0.0 0.0 0.00 0.00 0.00 84 1014.3
20180217122527 30 228 0.0 0.0 0.00 0.00 0.00 85 1014.1
20180217122036 30 211 0.0 0.0 0.00 0.00 0.00 84 1014.1
20180217121524 29 207 0.0 0.0 0.00 0.00 0.00 84 1014.0
20180217121032 29 207 0.0 0.0 0.00 0.00 0.00 83 1013.8
20180217120518 29 205 0.0 0.0 0.00 0.00 0.00 82 1013.7
20180217120040 29 205 0.0 0.0 0.00 0.00 0.00 82 1013.5
20180217115533 29 205 0.0 0.0 0.00 0.00 0.00 81 1013.4
20180217115025 29 205 0.0 0.0 0.00 0.00 0.00 79 1013.4
20180217114530 30 205 0.0 0.0 0.00 0.00 0.00 79 1013.4
20180217114035 30 205 0.0 0.0 0.00 0.00 0.00 80 1013.4
20180217113524 31 205 0.0 0.0 0.00 0.00 0.00 79 1013.4
20180217113030 31 205 0.0 0.0 0.00 0.00 0.00 78 1013.3
20180217112519 32 205 0.0 0.0 0.00 0.00 0.00 78 1013.5
20180217112028 32 205 0.0 0.0 0.00 0.00 0.00 77 1013.3
20180217111519 33 206 0.0 0.0 0.00 0.00 0.00 76 1013.2
20180217111024 33 198 0.0 0.0 0.00 0.00 0.00 76 1013.2
20180217110532 33 198 0.0 0.0 0.00 0.00 0.00 74 1013.1
20180217110050 34 205 0.0 0.0 0.00 0.00 0.00 74 1013.2
20180217105522 34 202 0.0 0.0 0.00 0.00 0.00 73 1013.1
20180217105032 35 188 0.0 0.0 0.00 0.00 0.00 72 1013.1
20180217104518 35 200 0.0 0.0 0.00 0.00 0.00 70 1013.3
20180217104030 35 198 0.0 0.0 0.00 0.00 0.00 67 1013.4
20180217103520 35 199 0.0 0.0 0.00 0.00 0.00 66 1013.3
20180217103028 35 186 0.0 0.0 0.00 0.00 0.00 65 1013.1
20180217102521 35 192 0.0 0.0 0.00 0.00 0.00 63 1013.0